Location: Unspecified
(37.6100°N, 2.7800°W)
Time: 12:21:45
(UTC+00:00)

Envisat - Visible Passes

Search period start: 23 June 2018 00:00
Search period end: 03 July 2018 00:00
Orbit: 764 x 766 km, 98.2° (Epoch: 23 June)

Date Brightness Start Highest point End Pass type
(mag) Time Alt. Az. Time Alt. Az. Time Alt. Az.
23 Jun 4.6 20:08:12 10° SSW 20:12:49 35° W 20:17:28 10° NNW visible
25 Jun 5.5 20:34:54 10° SW 20:38:33 20° W 20:42:14 10° NW visible
27 Jun 6.0 21:03:37 10° W 21:04:23 10° W 21:05:11 10° W visible
28 Jun 5.1 20:23:11 10° SSW 20:27:19 25° W 20:31:29 10° NW visible
30 Jun 5.7 20:50:34 10° WSW 20:53:07 14° W 20:55:40 10° WNW visible
01 Jul 4.8 20:11:35 10° SSW 20:16:05 32° W 20:20:37 10° NNW visible
